Terug naar catalogus

FENGYUN 1C DEB

ActiefPO
NORAD 37908·DEBRIS·🇨🇳 China

Gelanceerd May 10, 1999 vanaf Taiyuan Satellite Launch Center

Loading…

Volgende Passages (komende 24 uur)

TLE

VerouderendSource: Space-Track

Epoch: Sep 10, 2026, 08:53 UTC

1 37908U 99025ENH 26253.37082822  .00000779  00000-0  26913-3 0  9999
2 37908  99.1204 306.8816 0074730  84.2662 276.7037 14.37293966679627

Volg FENGYUN 1C DEB in realtime met AllMySat

Download on the App Store